This demonstration page uses our WeatherBlox Daily Observations layout. Learn more.

Left ArrowRight Arrow

39.92423, -83.80882

Hourly Observations for January 8, 2022

Temp ( °F °C ) Dew Point ( °F °C ) Humidity (%) Winds ( mph kmh ) Pressure ( in mb ) Visibility ( mi km ) Precip ( " mm )
12:56 am 00:56 Clear 11 -11.7 9 -12.8 92 92 S 6 9 30.47 1032 10 16 0.00 0.00
1:56 am 01:56 Clear 12 -11.1 9 -12.8 87 87 SSE 6 9 30.46 1031 10 16 0.00 0.00
2:56 am 02:56 Clear 12 -11.1 9 -12.8 87 87 SSE 6 9 30.50 1033 10 16 0.00 0.00
3:56 am 03:56 Clear 12 -11.1 10 -12.2 92 92 SSE 6 9 30.50 1033 10 16 0.00 0.00
4:56 am 04:56 Clear 12 -11.1 9 -12.8 87 87 SSE 7 11 30.50 1033 10 16 0.00 0.00
5:56 am 05:56 Clear 12 -11.1 9 -12.8 87 87 SSE 8 13 30.51 1033 10 16 0.00 0.00
6:56 am 06:56 Clear 12 -11.1 9 -12.8 87 87 SE 10 17 30.49 1033 10 16 0.00 0.00
7:56 am 07:56 Clear 12 -11.1 9 -12.8 87 87 SE 13 20 30.47 1032 10 16 0.00 0.00
8:56 am 08:56 Sunny 14 -10 11 -11.7 88 88 SE 13 20 30.46 1032 10 16 0.00 0.00
9:56 am 09:56 Sunny 18 -7.8 13 -10.6 81 81 SE 16 26 30.46 1031 10 16 0.00 0.00
10:56 am 10:56 Sunny 22 -5.6 14 -10 71 71 SE 13 20 30.45 1031 10 16 0.00 0.00
11:56 am 11:56 Sunny 26 -3.3 14 -10 60 60 SSE 15 24 30.41 1030 10 16 0.00 0.00
12:56 pm 12:56 Sunny 30 -1.1 16 -8.9 56 56 SSE 15 24 30.34 1028 10 16 0.00 0.00
1:56 pm 13:56 Mostly Cloudy 33 0.6 15 -9.4 47 47 SSE 16 26 30.31 1026 10 16 0.00 0.00
2:56 pm 14:56 Mostly Cloudy 34 1.1 16 -8.9 48 48 SSE 16 26 30.26 1025 10 16 0.00 0.00
3:56 pm 15:56 Cloudy 34 1.1 15 -9.4 46 46 S 16 26 30.26 1025 10 16 0.00 0.00
4:56 pm 16:56 Cloudy 34 1.1 18 -7.8 52 52 SSE 9 15 30.26 1025 10 16 0.00 0.00
5:56 pm 17:56 Cloudy 35 1.7 20 -6.7 54 54 SSE 13 20 30.22 1024 10 16 0.00 0.00
6:56 pm 18:56 Cloudy 36 2.2 21 -6.1 55 55 S 9 15 30.24 1024 10 16 0.00 0.00
7:56 pm 19:56 Cloudy 36 2.2 22 -5.6 57 57 S 7 11 30.22 1024 10 16 0.00 0.00
8:56 pm 20:56 Cloudy 36 2.2 24 -4.4 62 62 S 9 15 30.22 1023 10 16 0.00 0.00
9:56 pm 21:56 Cloudy with Light Rain 34 1.1 33 0.6 97 97 S 9 15 30.20 1023 10 16 0.00 0.00
10:43 pm 22:43 Cloudy with Light Rain 36 2 34 1 93 93 S 9 15 30.18 1022 10 16 0.00 0.00
10:56 pm 22:56 Cloudy with Light Rain 36 2.2 33 0.6 89 89 S 12 19 30.17 1022 10 16 0.00 0.00
11:18 pm 23:18 Cloudy with Light Rain 37 3 36 2 93 93 SSW 13 20 30.16 1021 10 16 0.00 0.00
11:56 pm 23:56 Cloudy with Light Rain 37 2.8 37 2.8 100 100 SSW 10 17 30.14 1021 10 16 0.00 0.00

Powered by AerisWeather